Météo par heure à Paris

Ce jour, 1 Décembre, Mardi

Heure Température Précipitation Vent Pression Humidité
00:00 +8°C° 0.4 mm 5 m/s 760 mmHg 91%
01:00 +8°C° 0.3 mm 5 m/s 760 mmHg 86%
02:00 +7°C° 0.3 mm 5 m/s 759 mmHg 82%
03:00 +7°C° 0.3 mm 5 m/s 759 mmHg 77%
04:00 +6°C° 0 mm 5 m/s 759 mmHg 77%
05:00 +6°C° 0 mm 5 m/s 760 mmHg 77%
06:00 +5°C° 0 mm 5 m/s 760 mmHg 77%
07:00 +5°C° 0 mm 5 m/s 760 mmHg 77%
08:00 +5°C° 0 mm 5 m/s 760 mmHg 76%
09:00 +6°C° 0 mm 5 m/s 760 mmHg 75%
10:00 +5°C° 0 mm 6 m/s 760 mmHg 73%
11:00 +7°C° 0 mm 6 m/s 760 mmHg 70%
12:00 +8°C° 0 mm 6 m/s 760 mmHg 67%
13:00 +8°C° 0.1 mm 6 m/s 760 mmHg 67%
14:00 +8°C° 0.1 mm 6 m/s 760 mmHg 66%
15:00 +8°C° 0.1 mm 6 m/s 760 mmHg 66%
16:00 +7°C° 0.1 mm 5 m/s 760 mmHg 68%
17:00 +7°C° 0.1 mm 5 m/s 760 mmHg 70%
18:00 +7°C° 0.1 mm 5 m/s 760 mmHg 72%
19:00 +6°C° 0 mm 5 m/s 760 mmHg 74%
20:00 +6°C° 0 mm 5 m/s 760 mmHg 76%
21:00 +5°C° 0 mm 5 m/s 760 mmHg 77%
22:00 +5°C° 0 mm 5 m/s 760 mmHg 77%
23:00 +5°C° 0 mm 5 m/s 760 mmHg 77%

Demain, 2 Décembre, Mercredi

Heure Température Précipitation Vent Pression Humidité
00:00 +5°C° 0 mm 5 m/s 759 mmHg 77%
01:00 +5°C° 0.1 mm 5 m/s 759 mmHg 79%
02:00 +6°C° 0.1 mm 5 m/s 759 mmHg 81%
03:00 +6°C° 0.1 mm 4 m/s 759 mmHg 83%
04:00 +6°C° 0 mm 4 m/s 759 mmHg 85%
05:00 +6°C° 0 mm 4 m/s 759 mmHg 87%
06:00 +7°C° 0 mm 3 m/s 759 mmHg 89%
07:00 +7°C° 0 mm 3 m/s 759 mmHg 89%
08:00 +7°C° 0 mm 3 m/s 758 mmHg 88%
09:00 +6°C° 0 mm 2 m/s 758 mmHg 88%
10:00 +7°C° 0 mm 2 m/s 758 mmHg 86%
11:00 +7°C° 0 mm 2 m/s 758 mmHg 84%
12:00 +7°C° 0 mm 2 m/s 758 mmHg 81%
13:00 +8°C° 0 mm 1 m/s 757 mmHg 81%
14:00 +8°C° 0 mm 1 m/s 757 mmHg 80%
15:00 +9°C° 0 mm 1 m/s 757 mmHg 80%
16:00 +8°C° 0 mm 1 m/s 757 mmHg 80%
17:00 +8°C° 0 mm 1 m/s 756 mmHg 81%
18:00 +8°C° 0 mm 1 m/s 756 mmHg 81%
19:00 +8°C° 0 mm 1 m/s 756 mmHg 82%
20:00 +8°C° 0 mm 1 m/s 756 mmHg 84%
21:00 +8°C° 0 mm 1 m/s 756 mmHg 85%
22:00 +7°C° 0 mm 1 m/s 755 mmHg 84%
23:00 +7°C° 0 mm 1 m/s 755 mmHg 84%

Après-demain, 3 Décembre, Jeudi

Heure Température Précipitation Vent Pression Humidité
00:00 +7°C° 0 mm 1 m/s 754 mmHg 83%
01:00 +6°C° 0 mm 2 m/s 753 mmHg 82%
02:00 +6°C° 0 mm 2 m/s 753 mmHg 81%
03:00 +5°C° 0 mm 3 m/s 752 mmHg 80%
04:00 +5°C° 0.1 mm 3 m/s 751 mmHg 83%
05:00 +5°C° 0.1 mm 3 m/s 751 mmHg 85%
06:00 +5°C° 0.1 mm 3 m/s 750 mmHg 87%
07:00 +5°C° 0.1 mm 3 m/s 750 mmHg 87%
08:00 +6°C° 0.1 mm 2 m/s 749 mmHg 87%
09:00 +6°C° 0.1 mm 2 m/s 748 mmHg 87%
10:00 +7°C° 0 mm 3 m/s 747 mmHg 83%
11:00 +7°C° 0 mm 3 m/s 747 mmHg 79%
12:00 +6°C° 0 mm 4 m/s 746 mmHg 75%
13:00 +6°C° 0.4 mm 4 m/s 745 mmHg 78%
14:00 +6°C° 0.4 mm 4 m/s 744 mmHg 80%
15:00 +6°C° 0.4 mm 4 m/s 743 mmHg 82%
16:00 +5°C° 0.2 mm 4 m/s 742 mmHg 83%
17:00 +5°C° 0.2 mm 4 m/s 741 mmHg 84%
18:00 +5°C° 0.2 mm 4 m/s 740 mmHg 84%
19:00 +5°C° 0.2 mm 4 m/s 739 mmHg 84%
20:00 +5°C° 0.2 mm 4 m/s 738 mmHg 84%
21:00 +5°C° 0.2 mm 4 m/s 737 mmHg 85%
22:00 +5°C° 0.5 mm 4 m/s 736 mmHg 85%
23:00 +5°C° 0.5 mm 5 m/s 735 mmHg 86%

4 Décembre, Vendredi

Heure Température Précipitation Vent Pression Humidité
00:00 +5°C° 0.5 mm 5 m/s 734 mmHg 87%
01:00 +5°C° 0.6 mm 5 m/s 733 mmHg 88%
02:00 +5°C° 0.6 mm 4 m/s 732 mmHg 88%
03:00 +5°C° 0.6 mm 4 m/s 731 mmHg 89%
04:00 +5°C° 1.5 mm 4 m/s 731 mmHg 89%
05:00 +5°C° 1.5 mm 4 m/s 731 mmHg 88%
06:00 +5°C° 1.5 mm 4 m/s 731 mmHg 88%
07:00 +5°C° 0 mm 4 m/s 731 mmHg 85%
08:00 +5°C° 0 mm 4 m/s 731 mmHg 82%
09:00 +4°C° 0 mm 4 m/s 731 mmHg 80%
10:00 +5°C° 0 mm 4 m/s 732 mmHg 79%
11:00 +5°C° 0 mm 4 m/s 732 mmHg 79%
12:00 +5°C° 0 mm 4 m/s 732 mmHg 78%
13:00 +5°C° 0 mm 4 m/s 732 mmHg 76%
14:00 +5°C° 0 mm 4 m/s 733 mmHg 73%
15:00 +5°C° 0 mm 4 m/s 733 mmHg 70%
16:00 +4°C° 0 mm 4 m/s 733 mmHg 74%
17:00 +4°C° 0 mm 3 m/s 734 mmHg 77%
18:00 +3°C° 0 mm 3 m/s 734 mmHg 80%
19:00 +3°C° 0 mm 3 m/s 735 mmHg 80%
20:00 +3°C° 0 mm 3 m/s 735 mmHg 81%
21:00 +3°C° 0 mm 3 m/s 736 mmHg 82%
22:00 +3°C° 0 mm 3 m/s 736 mmHg 81%
23:00 +3°C° 0 mm 4 m/s 736 mmHg 80%

5 Décembre, Samedi

Heure Température Précipitation Vent Pression Humidité
00:00 +1°C° 0 mm 4 m/s 736 mmHg 79%
01:00 +1°C° 0 mm 4 m/s 737 mmHg 79%
02:00 +1°C° 0 mm 4 m/s 737 mmHg 78%
03:00 +1°C° 0 mm 4 m/s 737 mmHg 78%
04:00 0°C° 0 mm 4 m/s 737 mmHg 78%
05:00 0°C° 0 mm 4 m/s 738 mmHg 79%
06:00 +1°C° 0 mm 3 m/s 738 mmHg 79%
07:00 0°C° 0 mm 4 m/s 738 mmHg 79%
08:00 0°C° 0 mm 4 m/s 739 mmHg 80%
09:00 0°C° 0 mm 4 m/s 739 mmHg 80%
10:00 +1°C° 0 mm 4 m/s 739 mmHg 77%
11:00 +2°C° 0 mm 5 m/s 739 mmHg 75%
12:00 +2°C° 0 mm 5 m/s 739 mmHg 73%
13:00 +3°C° 0.2 mm 4 m/s 739 mmHg 77%
14:00 +3°C° 0.2 mm 4 m/s 739 mmHg 81%
15:00 +1°C° 0.2 mm 4 m/s 739 mmHg 86%
16:00 +1°C° 1.1 mm 4 m/s 740 mmHg 88%
17:00 +1°C° 1.1 mm 4 m/s 740 mmHg 91%
18:00 +1°C° 1.1 mm 4 m/s 740 mmHg 94%
19:00 +2°C° 0.2 mm 3 m/s 740 mmHg 93%
20:00 +2°C° 0.2 mm 3 m/s 741 mmHg 91%
21:00 +3°C° 0.2 mm 2 m/s 741 mmHg 90%
22:00 +3°C° 0 mm 2 m/s 741 mmHg 89%
23:00 +3°C° 0 mm 2 m/s 742 mmHg 88%

6 Décembre, Dimanche

Heure Température Précipitation Vent Pression Humidité
00:00 +3°C° 0 mm 2 m/s 742 mmHg 87%
01:00 +3°C° 0 mm 2 m/s 742 mmHg 87%
02:00 +3°C° 0 mm 2 m/s 743 mmHg 88%
03:00 +3°C° 0 mm 2 m/s 743 mmHg 88%
04:00 +2°C° 0 mm 2 m/s 743 mmHg 89%
05:00 +3°C° 0 mm 1 m/s 744 mmHg 89%
06:00 +3°C° 0 mm 1 m/s 744 mmHg 90%
07:00 +3°C° 0 mm 1 m/s 744 mmHg 88%
08:00 +3°C° 0 mm 1 m/s 745 mmHg 87%
09:00 +2°C° 0 mm 0 m/s 745 mmHg 85%
10:00 +4°C° 0 mm 1 m/s 745 mmHg 82%
11:00 +5°C° 0 mm 1 m/s 745 mmHg 78%
12:00 +4°C° 0 mm 2 m/s 745 mmHg 75%
13:00 +4°C° 0 mm 2 m/s 745 mmHg 75%
14:00 +5°C° 0 mm 2 m/s 746 mmHg 75%
15:00 +5°C° 0 mm 2 m/s 746 mmHg 75%
16:00 +5°C° 0.1 mm 2 m/s 746 mmHg 79%
17:00 +5°C° 0.1 mm 2 m/s 746 mmHg 84%
18:00 +3°C° 0.1 mm 3 m/s 746 mmHg 88%
19:00 +3°C° 0.1 mm 3 m/s 746 mmHg 88%
20:00 +4°C° 0.1 mm 3 m/s 747 mmHg 88%
21:00 +4°C° 0.1 mm 3 m/s 747 mmHg 88%
22:00 +3°C° 0 mm 3 m/s 747 mmHg 87%
23:00 +4°C° 0 mm 2 m/s 747 mmHg 87%
Voir plus

Nous avons besoin de votre consentement

Meteoprog et ses fournisseurs de services peuvent stocker et accéder à des données personnelles telles que des cookies, des identifiants d'appareils ou d'autres technologies similaires sur votre appareil et traiter ces données pour personnaliser le contenu et les publicités, ainsi que pour fournir des fonctionnalités de médias sociaux et analyser le trafic.

  • Stocker et/ou accéder à des informations sur votre appareil

    Des cookies, des identifiants d'appareils ou d'autres informations peuvent être stockés ou accessibles sur votre appareil aux fins indiquées ci-dessus.

  • Annonces et contenus personnalisés, mesure des annonces et des contenus, connaissance de l'audience et développement de produits

    Les annonces et le contenu peuvent être personnalisés en fonction d'un profil. D'autres données peuvent être ajoutées pour mieux personnaliser les annonces et le contenu. Les performances des publicités et du contenu peuvent être mesurées. Il est possible d'obtenir des informations sur le public qui a vu les publicités et le contenu. Ces données peuvent être utilisées pour développer ou améliorer l'expérience de l'utilisateur, les systèmes et les logiciels.

En cliquant sur "J'accepte", vous autorisez l'utilisation de cookies, des identifiants d'appareils, des balises web ou d'autres technologies similaires. Vos paramètres peuvent être modifiés dans le navigateur de votre appareil.

Dans certains cas, des intérêts légitimes peuvent être invoqués plutôt qu'un consentement. Vous pouvez en savoir plus à ce sujet dans notre Politique de confidentialité et de cookies.